Location: ??????
(41.3164°N, 22.6615°E)
Time: 23:50:50
(UTC+00:00)

Cosmos 2082 - Pass Details

Date: 16 October 2021
Orbit: 835 x 853 km, 71.0° (Epoch: 25 November)

Event Time Altitude Azimuth Distance (km) Brightness Sun altitude
Rises 16:26:18 0° 340° (NNW) 3,394 7.0 -8.2°
Reaches altitude 10° 16:28:50 10° 346° (NNW) 2,455 6.3 -8.6°
Maximum altitude 16:34:18 51° 62° (ENE) 1,040 3.9 -9.7°
Drops below altitude 10° 16:39:45 10° 138° (SE) 2,441 5.7 -10.7°
Sets 16:42:15 0° 143° (SE) 3,373 6.5 -11.2°
